Tracking 30701 objects as of 14-Jun-2025
HD Live streaming from Space Station
objects crossing your sky now

ONEWEB-0305

Track ONEWEB-0305 now!
10-day predictions
ONEWEB-0305 is classified as:


NORAD ID: 49093
Int'l Code: 2021-075U
Perigee: 1,199.3 km
Apogee: 1,202.4 km
Inclination: 87.9 °
Period: 109.3 minutes
Semi major axis: 7571 km
RCS: Unknown
Launch date: August 21, 2021
Source: United Kingdom (UK)
Launch site: TYURATAM MISSILE AND SPACE COMPLEX (TTMTR)
Your satellite tracking list
Your tracking list is empty




NASA's NSSDC Master Catalog

Two Line Element Set (TLE):
1 49093U 21075U   25165.47865500  .00000022  00000-0  22890-4 0  9993
2 49093  87.9068  79.0510 0002036  65.8409 294.2935 13.17650217185180
Source of the keplerian elements: AFSPC